[[{"header":{"parameterUnit":"m.s-1","parameterCategory":1,"la1":30.2991,"la2":30.254,"lo1":-89.0895,"lo2":-89.0444,"dy":0.0017,"dx":0.0017,"nx":28,"ny":28,"refTime":"2025-09-05T09:00:00:Z","depth":0,"parameterNumber":2,"parameterNumberName":"U-component_of_WINDS"},"data":[0,0,0,0,0,0,0,0,0,0,0,0,0,0,0,0,0,0,0,0,0,0,0,0,0,0,0,0,0,0,0,0,0,0,0,0,0,0,0,0,0,0,0,0,0,0,0,0,0,0,0,0,0,0,0,0,0,0,1.6635,1.6635,0,1.6609,1.6609,1.6608,1.6535,1.6533,1.6531,1.653,1.6505,1.6506,1.6506,0,0,0,0,0,0,0,0,0,0,0,0,0,1.6623,1.6623,1.6635,1.6635,1.6634,1.6609,1.6609,1.6608,1.6535,1.6533,1.6531,1.6529,1.6505,1.6506,1.6507,0,0,0,0,0,0,0,0,0,0,0,0,0,1.6616,1.6623,1.6635,1.6595,1.6591,1.6609,1.6609,1.6608,1.6535,1.6533,1.653,1.6528,1.6504,1.6505,1.6507,1.6563,0,0,1.651,1.6511,0,0,0,0,0,0,0,0,1.6616,1.6616,1.6601,1.6597,1.6593,1.6572,1.6595,1.6593,1.6536,1.6556,1.653,1.6527,1.6529,1.6528,1.6529,1.6561,1.656,1.6511,1.6511,1.6512,1.6512,0,0,0,0,0,0,0,1.6617,1.6617,1.6625,1.6601,1.6596,1.6578,1.6575,1.6594,1.6557,1.6554,1.6549,1.6547,1.6527,1.6528,1.6528,1.656,1.6511,1.6512,1.6512,1.6513,1.6636,1.6639,0,0,0,0,0,0,1.6623,1.6618,1.6626,1.6624,1.6599,1.658,1.6576,1.6582,1.6556,1.655,1.6549,1.6544,1.6527,1.6526,1.6527,1.6589,1.6512,1.6513,1.6514,1.6634,1.6637,1.6639,0,0,0,0,0,0,1.6623,1.6624,1.6627,1.6619,1.6618,1.6583,1.659,1.6582,1.6583,1.6552,1.6545,1.6557,1.6525,1.6525,1.6554,1.6587,1.6514,1.6515,1.6631,1.6635,1.6638,1.6716,0,0,0,0,0,0,1.6623,1.6625,1.6645,1.662,1.6619,1.6654,1.6592,1.6584,1.6585,1.6578,1.6558,1.6552,1.6523,1.6552,1.6555,1.6588,1.6516,1.6627,1.6632,1.6637,1.671,1.6722,1.6732,0,0,0,0,0,1.6622,1.6669,1.6646,1.6648,1.6644,1.6656,1.6655,1.6621,1.6588,1.6609,1.6589,1.6553,1.6584,1.6556,1.6558,1.6592,1.6625,1.6631,1.6636,1.6705,1.672,1.6732,0,0,0,0,0,0,1.6699,1.6665,1.664,1.6679,1.6671,1.6644,1.6668,1.6637,1.6638,1.6632,1.6589,1.6585,1.662,1.6609,1.6579,1.6644,1.6598,1.6605,1.665,1.6663,1.6674,1.6676,1.6517,0,0,0,0,0,1.672,1.6733,1.6702,1.674,1.6737,1.6704,1.6708,1.6682,1.6672,1.6668,1.665,1.6643,1.665,1.6657,1.6662,1.6709,1.6703,1.6733,1.6744,1.6753,1.6759,1.6782,1.6795,1.6658,1.6658,1.6658,0,0,1.6765,1.6748,1.6758,1.6755,1.6746,1.676,1.6701,1.6719,1.6729,1.6671,1.6697,1.6684,1.6672,1.671,1.6726,1.6702,1.6796,1.6761,1.6768,1.6769,1.6789,1.6802,1.6814,1.6662,1.6661,1.6661,0,0,1.6852,1.6841,1.6871,1.6862,1.6849,1.6826,1.6834,1.6811,1.68,1.6825,1.6781,1.6793,1.6808,1.6801,1.68,1.6885,1.6851,1.6888,1.6945,1.6968,1.6979,1.6988,1.7017,1.7028,1.6894,1.6895,1.6895,0,1.6909,1.6928,1.689,1.691,1.691,1.6858,1.6887,1.6882,1.6871,1.6872,1.6846,1.6862,1.6851,1.6886,1.6907,1.6908,1.6915,1.689,1.698,1.6989,1.6997,1.7025,1.7036,1.6899,1.6898,1.6898,1.6898,0,1.6998,1.7012,1.7038,1.7028,1.7031,1.7056,1.7022,1.7029,1.7003,1.6984,1.701,1.6995,1.6996,1.7003,1.6978,1.7034,1.702,1.6988,1.694,1.7015,1.704,1.7051,1.6905,1.6904,1.6902,1.6901,0,0,1.7133,1.7101,1.7111,1.7106,1.7087,1.7097,1.712,1.712,1.7127,1.7122,1.714,1.7153,1.7123,1.7121,1.7095,1.7116,1.7183,1.7081,1.708,1.7099,1.7244,1.7267,1.728,1.7162,1.7163,1.7165,1.7244,0,1.7215,1.725,1.7217,1.726,1.7272,1.7223,1.7242,1.7233,1.7216,1.7224,1.7205,1.7214,1.7174,1.7173,1.7191,1.7171,1.7211,1.7165,1.7177,1.7178,1.718,1.7293,1.7318,1.7393,1.7254,1.7255,1.7257,0,1.7315,1.7313,1.7357,1.7334,1.7338,1.7356,1.7354,1.7362,1.7351,1.7337,1.7335,1.7303,1.7324,1.7279,1.7307,1.7276,1.7279,1.727,1.7272,1.7271,1.7221,1.7294,1.7417,1.7428,1.7272,1.7271,1.727,0,1.7407,1.7416,1.7442,1.7439,1.7415,1.7428,1.7419,1.7405,1.7407,1.7406,1.7406,1.7408,1.7408,1.741,1.7379,1.735,1.7411,1.7363,1.7399,1.74,1.7413,1.7413,1.7537,1.7418,1.7418,1.7418,1.7418,0,1.7501,1.7529,1.7483,1.75,1.753,1.7492,1.7523,1.7508,1.7497,1.751,1.7468,1.7481,1.7441,1.745,1.7426,1.7452,1.7453,1.7442,1.7435,1.7445,1.7446,1.7445,1.7439,1.7421,1.742,1.7419,1.7419,0,1.7608,1.7579,1.7604,1.7579,1.7573,1.7596,1.7574,1.7589,1.7569,1.7585,1.7587,1.7556,1.7564,1.7534,1.7538,1.7522,1.756,1.7546,1.7564,1.7559,1.7596,1.7592,1.7723,1.7738,1.7611,1.7612,1.7613,0,1.7669,1.769,1.7666,1.7671,1.7664,1.7673,1.7675,1.7638,1.7642,1.7631,1.7646,1.7651,1.7653,1.7669,1.7647,1.7649,1.7633,1.7679,1.7633,1.7642,1.7632,1.7631,1.7632,1.7688,1.769,1.7691,1.7692,0,1.7781,1.7765,1.7769,1.7768,1.7771,1.7769,1.7764,1.7771,1.7731,1.7738,1.7745,1.7747,1.775,1.7755,1.7753,1.7743,1.7711,1.7707,1.7715,1.7724,1.7733,1.7727,1.7588,1.7704,1.7702,1.7702,1.7701,1.77,1.7866,1.7881,1.7867,1.7872,1.7865,1.7861,1.7872,1.7854,1.7859,1.7858,1.7837,1.7849,1.7837,1.783,1.7824,1.7833,1.7812,1.7824,1.7827,1.783,1.7836,1.7733,1.7833,1.7832,1.7832,1.7832,1.7831,0,1.7974,1.7962,1.7968,1.7961,1.7966,1.7935,1.7928,1.7933,1.7944,1.7935,1.7938,1.7947,1.7951,1.793,1.7931,1.7943,1.7928,1.7944,1.7942,1.794,1.7855,1.7847,1.7956,1.7956,1.7956,1.7956,1.7956,1.7956,1.803,1.8055,1.8037,1.8057,1.8045,1.8056,1.8054,1.805,1.8043,1.8054,1.8058,1.8043,1.803,1.803,1.8033,1.8026,1.8028,1.805,1.8038,1.7959,1.7947,1.7935,1.7927,1.8051,1.8051,1.8122,1.8123,1.8123]},{"header":{"parameterUnit":"m.s-1","parameterCategory":1,"la1":30.2991,"la2":30.254,"lo1":-89.0895,"lo2":-89.0444,"dy":0.0017,"dx":0.0017,"nx":28,"ny":28,"refTime":"2025-09-05T09:00:00:Z","depth":0,"parameterNumber":3,"parameterNumberName":"V-component_of_WINDS"},"data":[0,0,0,0,0,0,0,0,0,0,0,0,0,0,0,0,0,0,0,0,0,0,0,0,0,0,0,0,0,0,0,0,0,0,0,0,0,0,0,0,0,0,0,0,0,0,0,0,0,0,0,0,0,0,0,0,0,0,-1.637,-1.637,0,-1.6402,-1.6402,-1.6403,-1.6421,-1.6421,-1.6421,-1.6421,-1.6452,-1.6453,-1.6454,0,0,0,0,0,0,0,0,0,0,0,0,0,-1.6323,-1.6324,-1.637,-1.637,-1.6371,-1.6402,-1.6402,-1.6403,-1.6421,-1.6421,-1.6421,-1.6421,-1.6452,-1.6453,-1.6454,0,0,0,0,0,0,0,0,0,0,0,0,0,-1.6348,-1.6324,-1.637,-1.6384,-1.6385,-1.6402,-1.6402,-1.6403,-1.6421,-1.6421,-1.6421,-1.6421,-1.6452,-1.6453,-1.6454,-1.6459,0,0,-1.6457,-1.6458,0,0,0,0,0,0,0,0,-1.6347,-1.635,-1.6381,-1.6383,-1.6384,-1.6408,-1.6397,-1.6421,-1.6421,-1.6407,-1.6421,-1.6422,-1.6437,-1.644,-1.6445,-1.646,-1.6461,-1.6458,-1.6458,-1.6459,-1.6459,0,0,0,0,0,0,0,-1.6345,-1.6348,-1.6382,-1.6382,-1.6384,-1.6388,-1.6391,-1.6402,-1.6421,-1.6409,-1.641,-1.6414,-1.6438,-1.6444,-1.6446,-1.6462,-1.6458,-1.6459,-1.6459,-1.646,-1.6483,-1.6483,0,0,0,0,0,0,-1.6341,-1.6347,-1.6381,-1.6383,-1.6365,-1.6388,-1.6393,-1.64,-1.6421,-1.6425,-1.6414,-1.6414,-1.6442,-1.6445,-1.6447,-1.6455,-1.6459,-1.646,-1.646,-1.6483,-1.6483,-1.6483,0,0,0,0,0,0,-1.634,-1.6344,-1.638,-1.6366,-1.637,-1.6389,-1.6397,-1.6401,-1.6407,-1.6425,-1.6428,-1.6416,-1.6442,-1.6446,-1.6456,-1.6456,-1.646,-1.6461,-1.6483,-1.6483,-1.6483,-1.6469,0,0,0,0,0,0,-1.6339,-1.6343,-1.6346,-1.6365,-1.6371,-1.6388,-1.6397,-1.6401,-1.6409,-1.641,-1.6428,-1.6431,-1.6443,-1.6454,-1.6457,-1.6457,-1.6462,-1.6483,-1.6483,-1.6483,-1.6469,-1.6468,-1.6467,0,0,0,0,0,-1.6337,-1.634,-1.6346,-1.635,-1.6374,-1.6388,-1.6392,-1.6405,-1.6409,-1.6411,-1.6423,-1.6431,-1.6455,-1.6455,-1.6458,-1.6459,-1.6483,-1.6483,-1.6483,-1.647,-1.6468,-1.6467,0,0,0,0,0,0,-1.6319,-1.6343,-1.6349,-1.6359,-1.6372,-1.6392,-1.6395,-1.6403,-1.6415,-1.6415,-1.6431,-1.6435,-1.6444,-1.6453,-1.6452,-1.6465,-1.647,-1.6471,-1.6459,-1.6458,-1.6457,-1.6454,-1.6463,0,0,0,0,0,-1.6316,-1.6326,-1.6346,-1.6353,-1.6359,-1.6376,-1.6382,-1.6392,-1.6405,-1.641,-1.6423,-1.6435,-1.6446,-1.6452,-1.6463,-1.6471,-1.6475,-1.6473,-1.6472,-1.6471,-1.6471,-1.6476,-1.6476,-1.6482,-1.6482,-1.6482,0,0,-1.631,-1.6325,-1.633,-1.635,-1.636,-1.637,-1.638,-1.639,-1.6397,-1.6412,-1.6422,-1.6432,-1.6447,-1.6456,-1.646,-1.6463,-1.647,-1.6471,-1.647,-1.6471,-1.6476,-1.6475,-1.6475,-1.6482,-1.6482,-1.6482,0,0,-1.6305,-1.6317,-1.6324,-1.6335,-1.6351,-1.6363,-1.6364,-1.6383,-1.639,-1.6402,-1.6413,-1.6422,-1.6439,-1.645,-1.6457,-1.6456,-1.6464,-1.6459,-1.6454,-1.6459,-1.6458,-1.6458,-1.6458,-1.6457,-1.6459,-1.6459,-1.6459,0,-1.6295,-1.6311,-1.6326,-1.6335,-1.6344,-1.6358,-1.6365,-1.6375,-1.6394,-1.6399,-1.6403,-1.6426,-1.6437,-1.6449,-1.6449,-1.6454,-1.6456,-1.6457,-1.6457,-1.6457,-1.6457,-1.6457,-1.6457,-1.6459,-1.6459,-1.6459,-1.6459,0,-1.6298,-1.6309,-1.6312,-1.6331,-1.634,-1.6348,-1.6364,-1.6371,-1.638,-1.6391,-1.6402,-1.6416,-1.643,-1.6434,-1.6442,-1.6447,-1.6448,-1.6454,-1.6459,-1.6455,-1.6455,-1.6456,-1.6458,-1.6458,-1.6458,-1.6458,0,0,-1.6281,-1.631,-1.6311,-1.632,-1.6339,-1.6348,-1.6356,-1.6371,-1.6377,-1.6389,-1.6397,-1.6412,-1.6418,-1.6427,-1.6436,-1.644,-1.6439,-1.6446,-1.6446,-1.6444,-1.6446,-1.6442,-1.6441,-1.6445,-1.6445,-1.6445,-1.6445,0,-1.6279,-1.6296,-1.631,-1.6322,-1.6332,-1.6347,-1.6354,-1.6367,-1.6378,-1.6387,-1.6399,-1.641,-1.6416,-1.6421,-1.6426,-1.6438,-1.644,-1.6439,-1.6452,-1.6452,-1.6448,-1.6442,-1.6437,-1.6436,-1.6445,-1.6445,-1.6445,0,-1.6278,-1.6291,-1.6304,-1.6323,-1.6328,-1.6335,-1.635,-1.6359,-1.6374,-1.6381,-1.6391,-1.6401,-1.6411,-1.6416,-1.643,-1.6428,-1.6435,-1.6442,-1.6442,-1.6444,-1.6448,-1.6443,-1.6436,-1.6436,-1.6445,-1.6445,-1.6445,0,-1.6265,-1.6285,-1.6296,-1.6303,-1.6326,-1.6331,-1.634,-1.6355,-1.6363,-1.6376,-1.6382,-1.6395,-1.6402,-1.6412,-1.6426,-1.6428,-1.6438,-1.6444,-1.6445,-1.6444,-1.6446,-1.6446,-1.644,-1.645,-1.645,-1.645,-1.645,0,-1.626,-1.6267,-1.629,-1.6297,-1.6306,-1.6322,-1.633,-1.6341,-1.6354,-1.6363,-1.6376,-1.6384,-1.6402,-1.6412,-1.6422,-1.6432,-1.6435,-1.6442,-1.6444,-1.644,-1.644,-1.6445,-1.6445,-1.645,-1.645,-1.645,-1.645,0,-1.6246,-1.6262,-1.6275,-1.6296,-1.6301,-1.6307,-1.6325,-1.6331,-1.6343,-1.6354,-1.6357,-1.6375,-1.6388,-1.6403,-1.642,-1.6427,-1.6436,-1.644,-1.6431,-1.6433,-1.6433,-1.6433,-1.643,-1.643,-1.644,-1.644,-1.644,0,-1.6242,-1.6249,-1.6271,-1.6278,-1.6287,-1.6298,-1.6307,-1.6323,-1.6332,-1.635,-1.6354,-1.6368,-1.638,-1.6399,-1.6413,-1.6426,-1.6431,-1.6429,-1.6433,-1.6429,-1.6431,-1.6431,-1.6431,-1.6428,-1.6428,-1.6428,-1.6427,0,-1.6234,-1.6241,-1.6254,-1.6269,-1.6279,-1.6291,-1.6304,-1.6309,-1.6328,-1.6336,-1.635,-1.6359,-1.6377,-1.639,-1.6406,-1.6415,-1.6424,-1.6426,-1.6427,-1.6423,-1.6418,-1.6421,-1.6428,-1.6426,-1.6426,-1.6426,-1.6426,-1.6426,-1.6225,-1.6231,-1.6248,-1.6261,-1.6273,-1.6285,-1.6292,-1.6305,-1.6317,-1.6333,-1.6342,-1.6355,-1.6371,-1.6392,-1.6402,-1.6412,-1.6415,-1.6416,-1.6417,-1.6417,-1.6416,-1.6416,-1.6415,-1.6415,-1.6415,-1.6415,-1.6415,0,-1.6217,-1.6229,-1.6241,-1.6259,-1.6269,-1.6278,-1.6293,-1.6301,-1.6312,-1.6326,-1.6338,-1.6353,-1.6367,-1.6383,-1.6397,-1.6402,-1.6407,-1.6405,-1.6405,-1.6407,-1.6412,-1.641,-1.6401,-1.6401,-1.6401,-1.6401,-1.6401,-1.6401,-1.6214,-1.6225,-1.6235,-1.6252,-1.6264,-1.6278,-1.6285,-1.6297,-1.6308,-1.6325,-1.6336,-1.6347,-1.6361,-1.6377,-1.639,-1.6394,-1.6399,-1.6396,-1.6401,-1.6406,-1.6407,-1.6408,-1.6406,-1.6397,-1.6397,-1.6396,-1.6396,-1.6396]}]]